This is the latest recevied weather packets stored in our database for station/object WA6OOO. If no packets are shown the sender has not sent any weather packets the latest 10 day(s).
| Time | Temp. | Humidity | Pressure | Rain* | Wind** | Luminosity | Snow |
|---|---|---|---|---|---|---|---|
| 1777867416 | 14.44° C | 79% | 1017.5 hPa | 0 mm | - | 0 W/m² | - |
| 1777867112 | 14.44° C | 78% | 1017.5 hPa | 0 mm | - | 0 W/m² | - |
| 1777866810 | 14.44° C | 78% | 1017.1 hPa | 0 mm | - | 0 W/m² | - |
| 1777866507 | 14.44° C | 78% | 1017.2 hPa | 0 mm | - | 0 W/m² | - |
| 1777866204 | 14.44° C | 78% | 1017.2 hPa | 0 mm | - | 0 W/m² | - |
| 1777865901 | 14.44° C | 77% | 1017 hPa | 0 mm | - | 0 W/m² | - |
| 1777865599 | 15° C | 76% | 1017.1 hPa | 0 mm | - | 0 W/m² | - |
| 1777865295 | 15° C | 74% | 1017.1 hPa | 0 mm | - | 0 W/m² | - |
| 1777864993 | 15° C | 73% | 1016.9 hPa | 0 mm | - | 0 W/m² | - |
| 1777864689 | 15° C | 72% | 1017 hPa | 0 mm | - | 0 W/m² | - |
| 1777864387 | 15° C | 71% | 1016.9 hPa | 0 mm | - | 0 W/m² | - |
| 1777864083 | 15° C | 70% | 1016.8 hPa | 0 mm | - | 0 W/m² | - |
| 1777863780 | 15° C | 70% | 1016.8 hPa | 0 mm | - | 0 W/m² | - |
| 1777863476 | 15° C | 70% | 1016.7 hPa | 0 mm | - | 0 W/m² | - |
| 1777863173 | 15° C | 70% | 1016.7 hPa | 0 mm | - | 0 W/m² | - |
| 1777862870 | 15° C | 71% | 1016.7 hPa | 0 mm | - | 1 W/m² | - |
| 1777862566 | 15° C | 71% | 1016.7 hPa | 0 mm | - | 2 W/m² | - |
| 1777862263 | 15° C | 72% | 1016.7 hPa | 0 mm | - | 4 W/m² | - |
| 1777861960 | 15° C | 73% | 1016.6 hPa | 0 mm | - | 7 W/m² | - |
| 1777861655 | 15° C | 76% | 1016.8 hPa | 0 mm | - | 11 W/m² | - |
| 1777861352 | 15.56° C | 76% | 1016.5 hPa | 0 mm | - | 15 W/m² | - |
| 1777861049 | 15.56° C | 77% | 1016.5 hPa | 0 mm | - | 19 W/m² | - |
| 1777860746 | 15.56° C | 78% | 1016.5 hPa | 0 mm | - | 23 W/m² | - |
| 1777860443 | 15.56° C | 78% | 1016.5 hPa | 0 mm | - | 27 W/m² | - |
| 1777860140 | 15° C | 78% | 1016.5 hPa | 0 mm | - | 40 W/m² | - |
* Rain latest hour (hover to see other rain measurements)
** Current wind speed in m/s (hover to see current wind gust speed)